This is the latest recevied weather packets stored in our database for station/object AD8AK. If no packets are shown the sender has not sent any weather packets the latest 1 day(s).
| Time | Temp. | Humidity | Pressure | Rain* | Wind** | Luminosity | Snow |
|---|---|---|---|---|---|---|---|
| 1778007027 | 11.11° C | 87% | 1008.5 hPa | 1.27 mm | 0 m/s | - | - |
| 1778006724 | 11.11° C | 87% | 1008.4 hPa | 1.27 mm | 0 m/s | - | - |
| 1778006421 | 11.11° C | 86% | 1008.2 hPa | 0 mm | 0 m/s | - | - |
| 1778006118 | 11.11° C | 86% | 1008.3 hPa | 0 mm | 0 m/s | - | - |
| 1778005815 | 11.11° C | 85% | 1008.3 hPa | 0 mm | 0.45 m/s, 299° | - | - |
| 1778005512 | 11.11° C | 85% | 1008.1 hPa | 3.56 mm | 0.45 m/s, 320° | - | - |
| 1778005208 | 11.67° C | 86% | 1008.1 hPa | 3.56 mm | 0.45 m/s, 286° | - | - |
| 1778003085 | 12.78° C | 87% | 1008 hPa | 0 mm | 0 m/s | - | - |
| 1778002781 | 12.78° C | 87% | 1007.8 hPa | 0 mm | 0 m/s | - | - |
| 1778002478 | 12.78° C | 86% | 1008.2 hPa | 1.27 mm | 0.45 m/s, 311° | - | - |
| 1778002175 | 12.78° C | 86% | 1008.1 hPa | 1.27 mm | 0.45 m/s, 311° | - | - |
| 1778001873 | 12.78° C | 86% | 1008.1 hPa | 1.78 mm | 0.45 m/s, 293° | - | - |
| 1778001572 | 12.78° C | 85% | 1008 hPa | 3.05 mm | 0.45 m/s, 337° | - | - |
| 1778001269 | 13.33° C | 84% | 1008.2 hPa | 1.27 mm | 0.45 m/s, 320° | - | - |
| 1778000966 | 13.89° C | 83% | 1008.1 hPa | 0 mm | 0.45 m/s, 279° | - | - |
| 1778000663 | 13.89° C | 81% | 1008.1 hPa | 0 mm | 0.45 m/s, 281° | - | - |
| 1778000358 | 13.89° C | 80% | 1008.2 hPa | 0 mm | 0.89 m/s, 344° | - | - |
| 1778000054 | 14.44° C | 80% | 1008.2 hPa | 0 mm | 0.89 m/s, 317° | - | - |
| 1777999749 | 15° C | 81% | 1008.4 hPa | 0 mm | 0.89 m/s, 284° | - | - |
| 1777999446 | 15° C | 80% | 1008.2 hPa | 0 mm | 1.34 m/s, 329° | - | - |
| 1777999145 | 15° C | 78% | 1008.1 hPa | 0 mm | 0.45 m/s, 287° | - | - |
| 1777998843 | 15° C | 77% | 1008.4 hPa | 0 mm | 1.34 m/s, 289° | - | - |
| 1777998542 | 15° C | 77% | 1008.1 hPa | 0 mm | 1.34 m/s, 275° | - | - |
| 1777998237 | 15.56° C | 77% | 1008.3 hPa | 0 mm | 0.89 m/s, 264° | - | - |
| 1777997934 | 15.56° C | 75% | 1008.2 hPa | 0 mm | 0.45 m/s, 300° | - | - |
* Rain latest hour (hover to see other rain measurements)
** Current wind speed in m/s (hover to see current wind gust speed)